User: anonymous
Location: Unspecified
(0.0000°N, 0.0000°E)
Time: 15:26:50
(UTC+00:00)
Language:

X-37B - Orbit

View from above orbital plane
View from above orbital plane
View from above satellite
View from above satellite

Ground track
Ground track

The orbit data is extracted from the following two-line orbital elements,

1 39025U 12071A   14102.38093426 0.00001000  00000-0  12950-4 0    08
2 39025  43.5052 157.9722 0017808 276.2343  83.7652 15.57815517    00
Epoch (UTC): 12 April 2014 09:08:32
Eccentricity: 0.0017808
inclination: 43.5052°
perigee height: 382 km
apogee height: 406 km
right ascension of ascending node: 157.9722°
argument of perigee: 276.2343°
revolutions per day: 15.57815517
mean anomaly at epoch: 83.7652°
orbit number at epoch: 0

The dashed part of the orbit path shows where the satellite is in the earth's shadow,  

DLR